Location: Gad�tanya
(48.0500°N, 20.8500°E)
Time: 11:49:07
(UTC+00:00)

Cosmos 2333 Rocket - Pass Details

Date: 05 July 2020
Orbit: 837 x 864 km, 70.8° (Epoch: 14 August)

Event Time Altitude Azimuth Distance (km) Brightness Sun altitude
Rises 20:40:24 0° 211° (SSW) 3,391 5.0 -14.2°
Reaches altitude 10° 20:42:50 10° 213° (SSW) 2,463 4.3 -14.4°
Maximum altitude 20:48:29 76° 299° (WNW) 882 2.4 -14.9°
Drops below altitude 10° 20:54:14 10° 26° (NNE) 2,498 5.2 -15.3°
Sets 20:56:44 0° 28° (NNE) 3,442 5.9 -15.5°
